Temp
-6 -5 -6 -5 -5 -6 -6 -6 -6 -6 -5 -5 -6 -6 -7 -7 -6 -6 -6 -6 -6 -5 -6 -6 -6 -6 -6 -6 -6 -6 -7 -6 -7 -9 -8 -10 -9 -11 -13 -14 -14 -14 -14
-6 -6 -5 -6 -6 -6 -6 -6 -6 -6 -5 -5 -6 -6 -6 -6 -6 -6 -6 -6 -6 -5 -5 -5 -6 -6 -7 -6 -6 -6 -7 -7 -7 -7 -9 -10 -10 -11 -13 -14 -13 -13 -13
-6 -6 -6 -5 -6 -6 -6 -6 -6 -6 -6 -6 -6 -6 -6 -6 -5 -5 -5 -5 -5 -5 -5 -5 -5 -6 -6 -7 -7 -7 -6 -7 -7 -8 -9 -10 -10 -11 -12 -13 -13 -13 -12
-6 -6 -6 -6 -6 -6 -6 -6 -6 -6 -6 -6 -6 -5 -5 -5 -4 -5 -4 -5 -5 -5 -5 -5 -5 -5 -6 -7 -7 -7 -7 -7 -8 -8 -9 -9 -10 -11 -11 -11 -12 -12 -11
-6 -6 -6 -6 -6 -6 -6 -6 -6 -6 -5 -5 -5 -5 -5 -5 -5 -5 -5 -5 -5 -5 -5 -5 -5 -6 -6 -7 -7 -7 -7 -7 -8 -8 -9 -8 -10 -10 -10 -11 -11 -12 -11
-6 -6 -6 -6 -6 -6 -6 -6 -6 -6 -6 -5 -5 -5 -5 -5 -5 -5 -5 -5 -5 -5 -5 -5 -5 -6 -6 -7 -7 -7 -7 -7 -8 -7 -8 -8 -9 -10 -10 -10 -11 -11 -10
-7 -7 -7 -6 -6 -6 -6 -6 -6 -6 -5 -5 -5 -5 -5 -5 -5 -5 -5 -5 -5 -5 -5 -5 -6 -5 -6 -7 -6 -6 -6 -6 -8 -7 -8 -8 -9 -9 -9 -9 -10 -10 -10
-8 -8 -8 -7 -7 -6 -6 -6 -6 -6 -5 -5 -5 -5 -5 -5 -5 -5 -5 -5 -5 -5 -5 -5 -5 -5 -6 -6 -7 -7 -6 -5 -7 -7 -7 -7 -9 -8 -8 -8 -9 -10 -10
-7 -7 -7 -7 -7 -7 -6 -6 -6 -6 -6 -6 -5 -5 -5 -5 -5 -5 -5 -5 -6 -6 -5 -5 -5 -5 -6 -6 -7 -7 -6 -6 -7 -7 -6 -6 -8 -8 -7 -8 -8 -8 -9
-7 -7 -7 -7 -7 -7 -7 -6 -6 -6 -6 -6 -5 -5 -5 -5 -5 -5 -5 -6 -6 -6 -6 -6 -6 -6 -6 -6 -6 -7 -7 -5 -7 -7 -6 -6 -7 -8 -6 -7 -7 -7 -8
-8 -7 -7 -7 -7 -7 -7 -7 -7 -6 -6 -6 -6 -6 -6 -6 -6 -6 -6 -6 -6 -6 -6 -6 -6 -7 -7 -7 -7 -7 -7 -7 -7 -6 -7 -6 -6 -7 -7 -6 -7 -7 -7
-8 -8 -8 -7 -7 -7 -8 -7 -7 -7 -7 -6 -6 -6 -6 -6 -6 -6 -6 -6 -6 -7 -7 -7 -7 -7 -8 -8 -8 -7 -7 -7 -7 -7 -7 -7 -6 -6 -7 -7 -6 -6 -7
-9 -9 -8 -8 -7 -7 -7 -8 -8 -7 -8 -7 -7 -6 -6 -7 -7 -7 -7 -7 -7 -7 -7 -7 -8 -8 -8 -8 -8 -8 -8 -8 -7 -7 -7 -8 -7 -7 -6 -7 -7 -6 -5
-9 -9 -9 -9 -8 -8 -8 -7 -8 -9 -8 -8 -8 -8 -7 -7 -7 -7 -7 -8 -8 -7 -8 -8 -8 -8 -8 -8 -8 -9 -9 -8 -8 -9 -8 -8 -8 -7 -7 -7 -8 -7 -6
-9 -8 -8 -9 -9 -9 -9 -9 -9 -10 -9 -8 -8 -8 -8 -8 -7 -7 -8 -8 -8 -8 -8 -8 -8 -9 -9 -9 -9 -9 -9 -9 -9 -8 -9 -9 -9 -8 -7 -7 -7 -8 -7
-9 -9 -9 -9 -8 -9 -10 -10 -10 -10 -10 -9 -9 -8 -8 -8 -8 -9 -9 -9 -8 -9 -9 -9 -9 -9 -9 -8 -8 -8 -8 -9 -10 -10 -9 -10 -10 -10 -8 -7 -7 -8 -8
-10 -10 -10 -9 -10 -10 -9 -10 -10 -10 -10 -10 -10 -10 -9 -9 -9 -9 -10 -9 -8 -9 -9 -9 -9 -9 -9 -9 -9 -9 -9 -9 -9 -9 -9 -9 -9 -10 -10 -8 -8 -8 -8
-10 -10 -10 -10 -10 -10 -9 -9 -10 -9 -9 -10 -11 -11 -10 -10 -10 -10 -10 -9 -9 -9 -9 -9 -9 -9 -9 -9 -9 -9 -9 -9 -9 -9 -9 -9 -9 -8 -10 -10 -9 -8 -8
-11 -11 -10 -10 -10 -10 -10 -10 -10 -9 -9 -10 -11 -12 -11 -10 -10 -10 -10 -10 -10 -10 -9 -9 -9 -9 -9 -9 -9 -9 -9 -9 -9 -9 -9 -10 -10 -9 -9 -9 -10 -9 -8
-11 -11 -11 -11 -11 -10 -10 -10 -11 -10 -10 -11 -12 -11 -11 -11 -11 -11 -11 -11 -11 -10 -9 -9 -10 -9 -9 -9 -9 -9 -9 -9 -9 -9 -9 -10 -10 -9 -10 -10 -9 -10 -8
-12 -11 -11 -11 -11 -10 -10 -10 -11 -11 -10 -11 -11 -12 -12 -11 -11 -11 -12 -12 -11 -10 -10 -10 -10 -10 -10 -10 -10 -9 -9 -9 -9 -9 -9 -9 -10 -10 -9 -10 -11 -9 -10
-11 -11 -11 -11 -11 -10 -10 -9 -9 -11 -11 -12 -13 -12 -12 -12 -11 -11 -12 -12 -11 -11 -11 -11 -11 -11 -10 -10 -11 -10 -10 -10 -9 -9 -9 -9 -10 -10 -10 -10 -11 -10 -10
-11 -11 -11 -11 -11 -11 -12 -12 -11 -11 -12 -12 -12 -13 -12 -12 -12 -12 -12 -12 -11 -12 -12 -11 -11 -10 -11 -10 -10 -10 -10 -10 -10 -10 -9 -10 -10 -9 -10 -10 -10 -10 -10
-12 -12 -11 -11 -12 -12 -11 -12 -12 -12 -12 -12 -12 -12 -12 -12 -12 -13 -13 -12 -12 -12 -12 -12 -12 -11 -11 -11 -10 -10 -10 -10 -10 -10 -10 -10 -9 -9 -9 -9 -10 -10 -10
-12 -12 -11 -11 -13 -12 -12 -12 -13 -12 -12 -12 -13 -13 -12 -12 -12 -13 -13 -13 -12 -12 -13 -13 -12 -12 -11 -11 -11 -11 -10 -10 -10 -10 -10 -10 -10 -10 -10 -10 -10 -11 -10
-13 -13 -11 -11 -13 -13 -13 -13 -13 -13 -13 -13 -13 -13 -12 -12 -12 -13 -14 -14 -14 -13 -13 -13 -12 -12 -11 -11 -11 -11 -10 -10 -10 -10 -10 -10 -10 -10 -10 -10 -10 -10 -10
Height
5913 5913 5913 5914 5914 5914 5915 5914 5913 5912 5910 5908 5907 5905 5904 5901 5898 5895 5892 5888 5885 5881 5876 5872 5868 5863 5858 5854 5849 5843 5837 5831 5824 5812 5803 5793 5783 5771 5759 5753 5756 5756 5758
5911 5911 5911 5911 5911 5911 5911 5911 5911 5910 5908 5907 5905 5903 5901 5898 5895 5893 5889 5885 5882 5879 5874 5869 5865 5861 5857 5852 5847 5842 5836 5830 5822 5811 5805 5794 5786 5773 5763 5757 5756 5757 5759
5907 5908 5908 5907 5907 5907 5908 5907 5907 5907 5906 5905 5902 5900 5898 5895 5892 5890 5887 5885 5880 5876 5872 5867 5864 5859 5854 5850 5846 5840 5835 5829 5821 5813 5807 5796 5788 5777 5769 5763 5760 5762 5764
5903 5904 5905 5905 5904 5905 5905 5904 5905 5904 5903 5902 5900 5898 5895 5893 5891 5888 5885 5881 5878 5874 5869 5865 5861 5857 5853 5848 5845 5840 5834 5829 5822 5815 5809 5800 5792 5782 5777 5769 5767 5765 5768
5899 5900 5900 5900 5900 5900 5901 5901 5902 5901 5899 5898 5898 5895 5893 5891 5889 5886 5883 5879 5876 5871 5868 5863 5859 5854 5850 5847 5843 5840 5835 5828 5823 5816 5812 5804 5797 5788 5783 5779 5774 5772 5773
5894 5895 5895 5895 5896 5897 5897 5897 5897 5898 5895 5895 5894 5892 5891 5888 5886 5883 5881 5877 5873 5869 5866 5861 5857 5852 5848 5845 5842 5838 5833 5828 5823 5818 5814 5808 5802 5794 5790 5787 5783 5779 5779
5891 5891 5891 5891 5892 5892 5891 5891 5892 5892 5891 5891 5890 5889 5887 5885 5883 5880 5878 5875 5871 5867 5864 5859 5855 5852 5848 5844 5840 5836 5832 5828 5824 5820 5817 5813 5808 5801 5798 5796 5793 5789 5789
5886 5887 5887 5887 5886 5886 5886 5886 5887 5886 5886 5886 5885 5884 5883 5882 5880 5877 5875 5872 5869 5865 5861 5857 5853 5849 5847 5843 5839 5836 5833 5828 5824 5821 5820 5816 5813 5809 5806 5805 5802 5799 5799
5879 5880 5880 5880 5879 5879 5880 5880 5880 5880 5880 5880 5879 5879 5878 5877 5875 5873 5871 5868 5864 5861 5857 5854 5850 5846 5843 5841 5838 5835 5832 5828 5823 5822 5820 5819 5818 5814 5813 5813 5811 5811 5809
5869 5871 5872 5872 5873 5873 5873 5873 5872 5873 5873 5872 5872 5872 5871 5870 5869 5867 5865 5862 5860 5856 5853 5850 5847 5843 5840 5837 5835 5832 5831 5828 5824 5822 5822 5820 5821 5819 5818 5817 5818 5818 5819
5859 5860 5862 5863 5864 5864 5865 5866 5866 5866 5865 5865 5865 5864 5863 5863 5862 5861 5859 5856 5854 5851 5848 5845 5841 5838 5836 5834 5832 5830 5828 5827 5826 5822 5821 5822 5820 5821 5820 5819 5821 5822 5822
5849 5850 5850 5851 5853 5854 5855 5856 5856 5857 5857 5857 5856 5855 5855 5855 5854 5853 5852 5850 5848 5845 5842 5840 5837 5834 5831 5829 5828 5827 5825 5825 5824 5822 5819 5821 5821 5819 5820 5819 5820 5822 5823
5836 5838 5841 5842 5842 5842 5844 5845 5845 5845 5846 5847 5847 5847 5846 5846 5846 5845 5844 5842 5840 5838 5835 5832 5831 5829 5827 5825 5823 5822 5821 5820 5820 5820 5819 5816 5818 5818 5818 5818 5819 5820 5822
5823 5824 5827 5830 5830 5830 5833 5835 5836 5836 5836 5836 5836 5837 5837 5836 5836 5835 5834 5833 5832 5831 5829 5827 5825 5824 5823 5821 5818 5818 5817 5816 5816 5816 5816 5814 5814 5814 5814 5815 5816 5817 5819
5812 5812 5816 5819 5820 5817 5819 5822 5826 5827 5827 5827 5827 5827 5826 5826 5827 5827 5825 5824 5822 5822 5821 5820 5819 5819 5818 5817 5815 5814 5812 5812 5811 5811 5811 5811 5811 5811 5811 5811 5811 5812 5814
5795 5798 5799 5803 5805 5804 5806 5808 5813 5816 5817 5816 5818 5817 5817 5817 5817 5818 5817 5816 5815 5814 5814 5812 5812 5812 5812 5811 5809 5808 5808 5808 5807 5806 5807 5806 5807 5806 5806 5806 5807 5808 5808
5781 5787 5787 5785 5788 5793 5791 5792 5796 5800 5803 5803 5805 5807 5808 5808 5809 5810 5810 5808 5807 5808 5808 5808 5806 5805 5804 5804 5804 5802 5802 5802 5802 5801 5801 5800 5801 5801 5803 5801 5802 5803 5804
5768 5772 5775 5777 5774 5776 5775 5775 5778 5782 5788 5789 5791 5794 5797 5799 5799 5800 5801 5801 5800 5800 5802 5800 5799 5799 5799 5800 5799 5796 5796 5797 5796 5795 5793 5793 5793 5793 5795 5799 5798 5799 5799
5754 5758 5761 5759 5760 5768 5764 5761 5763 5767 5772 5774 5776 5781 5786 5789 5790 5790 5792 5792 5793 5794 5794 5793 5794 5793 5792 5790 5791 5791 5791 5790 5789 5788 5786 5784 5785 5785 5787 5788 5790 5792 5793
5739 5743 5745 5748 5752 5756 5752 5752 5754 5761 5762 5763 5766 5772 5776 5780 5781 5781 5782 5783 5784 5785 5785 5785 5786 5786 5784 5783 5783 5783 5784 5783 5783 5780 5780 5779 5778 5779 5779 5780 5782 5783 5785
5726 5731 5735 5740 5743 5745 5746 5746 5749 5752 5755 5755 5758 5762 5766 5769 5771 5772 5772 5775 5776 5776 5777 5778 5778 5776 5776 5774 5773 5773 5774 5775 5776 5774 5773 5773 5772 5771 5772 5772 5772 5773 5775
5714 5719 5725 5729 5729 5731 5732 5734 5738 5744 5745 5747 5749 5752 5756 5758 5760 5761 5763 5766 5765 5766 5766 5767 5769 5767 5768 5768 5765 5763 5764 5765 5766 5767 5766 5765 5764 5763 5763 5765 5766 5764 5767
5701 5708 5715 5717 5717 5719 5724 5727 5727 5734 5736 5739 5742 5744 5747 5749 5750 5751 5754 5755 5755 5757 5758 5758 5759 5758 5758 5758 5758 5755 5753 5753 5754 5755 5756 5756 5756 5755 5755 5756 5757 5758 5756
5690 5697 5702 5704 5706 5710 5714 5718 5720 5724 5728 5731 5732 5735 5738 5739 5740 5740 5742 5744 5746 5748 5747 5748 5748 5747 5747 5745 5747 5746 5743 5742 5742 5743 5745 5746 5746 5746 5747 5747 5748 5749 5749
5683 5688 5691 5695 5698 5702 5706 5709 5711 5716 5718 5721 5724 5727 5730 5730 5730 5731 5734 5735 5736 5737 5736 5737 5736 5736 5735 5736 5736 5734 5732 5731 5730 5730 5731 5732 5734 5734 5735 5736 5738 5740 5741
5674 5678 5680 5686 5692 5696 5699 5701 5704 5707 5710 5713 5715 5716 5718 5720 5721 5722 5723 5724 5725 5726 5726 5727 5725 5725 5724 5724 5724 5721 5718 5716 5715 5716 5716 5717 5719 5723 5724 5725 5727 5729 5732
Wind_Speed
14 13 14 13 13 12 12 15 14 13 13 14 15 14 16 19 20 21 24 23 26 29 30 32 32 31 31 29 29 33 30 29 36 39 43 40 42 36 22 6 2 6 9
15 15 15 15 17 17 14 11 13 12 13 14 14 15 17 19 20 22 22 24 25 26 30 33 31 31 32 30 30 36 37 31 38 47 42 39 39 33 22 14 11 7 11
13 13 12 11 13 13 13 12 10 12 13 13 13 14 16 19 20 22 24 25 26 28 31 31 30 31 32 32 31 30 32 32 38 41 37 38 34 31 24 18 17 15 12
10 11 10 10 9 9 10 12 11 12 12 10 12 15 17 19 21 23 25 28 29 30 32 33 32 32 31 28 27 28 30 32 34 32 34 36 30 26 25 21 14 15 12
10 11 11 9 9 10 11 11 10 11 11 11 14 17 17 20 22 24 26 28 29 30 31 34 36 34 29 28 28 28 27 28 29 27 30 34 26 25 23 18 15 17 17
10 10 11 12 12 13 13 12 11 9 15 15 16 17 18 20 24 26 28 29 31 32 33 35 36 36 35 33 30 30 23 24 24 24 26 30 23 25 21 18 16 18 20
11 12 13 15 15 16 17 17 16 16 17 18 19 20 20 22 24 28 30 30 30 32 33 35 36 36 36 36 35 28 20 23 20 21 24 26 18 23 22 17 16 19 20
18 16 17 19 18 18 18 20 19 19 19 19 20 21 22 23 25 27 31 33 32 32 31 32 34 35 34 35 35 27 21 21 17 16 20 22 16 21 20 17 15 19 21
22 19 18 21 21 21 21 22 21 21 21 22 22 23 24 26 28 30 32 34 34 34 32 30 32 32 33 32 34 30 26 18 15 11 14 17 13 12 14 12 14 18 23
28 24 23 22 23 23 22 22 24 24 24 24 25 26 27 29 30 32 34 35 34 35 33 31 33 32 32 31 32 31 25 16 16 12 10 10 13 4 10 9 7 11 18
32 29 26 23 22 23 23 23 25 26 28 28 29 29 31 32 33 34 34 35 34 34 32 32 31 31 31 30 30 31 24 16 16 21 8 8 7 8 3 7 4 7 13
37 35 31 29 27 25 26 28 28 30 32 33 33 34 36 36 35 33 35 35 34 32 32 31 31 30 30 29 27 27 22 17 15 13 17 6 7 5 6 8 8 7 10
42 40 36 35 35 33 31 32 35 35 35 37 39 40 39 38 35 34 34 34 32 31 32 31 29 27 27 27 25 24 22 20 19 21 19 17 8 8 5 10 13 14 14
49 44 42 40 42 42 40 39 36 38 37 38 40 41 41 40 38 35 34 32 30 29 30 29 26 25 21 22 22 21 19 20 22 25 21 21 15 11 9 9 13 19 19
52 45 50 48 46 50 47 48 40 35 37 39 38 39 40 40 38 37 35 30 26 28 27 25 22 23 22 24 27 26 22 19 22 26 23 19 18 13 13 10 12 14 20
55 56 53 55 51 55 55 51 48 34 33 33 36 38 39 36 35 33 32 27 27 27 25 22 22 24 26 28 27 27 23 21 22 23 28 34 25 20 16 13 11 14 16
60 60 62 57 54 58 66 52 46 43 43 40 38 38 36 36 31 29 28 26 28 26 25 25 23 25 27 26 24 23 21 20 21 18 27 26 32 22 22 17 17 16 17
64 64 60 62 63 59 62 70 57 52 52 39 36 38 37 36 28 27 26 26 28 27 27 24 24 23 23 24 24 22 23 21 22 19 23 22 18 30 34 24 20 19 17
56 54 59 40 40 46 34 34 52 65 50 42 38 36 35 34 27 27 28 27 28 26 29 28 26 24 23 23 24 25 25 23 21 18 21 26 19 15 22 19 24 22 16
54 55 55 49 51 42 31 32 50 51 43 38 33 34 35 31 29 27 27 28 28 25 23 23 23 24 24 24 25 25 25 22 22 20 20 22 25 20 16 15 19 27 24
55 56 54 48 47 41 46 35 30 36 37 33 33 32 33 30 30 27 29 30 30 27 24 25 24 23 23 23 24 25 27 25 23 23 21 23 25 27 22 19 16 21 31
58 56 49 39 35 40 35 38 36 36 34 31 29 32 33 32 30 31 30 33 27 26 25 24 27 26 27 27 26 27 28 28 25 24 24 25 24 27 28 25 23 13 24
49 49 45 34 35 31 34 38 34 35 35 32 32 29 31 32 34 32 31 32 31 29 27 27 28 30 30 30 32 30 31 31 30 28 26 25 26 26 29 33 32 20 18
23 32 38 39 28 34 43 40 36 32 33 32 28 30 32 31 35 35 33 33 31 29 27 29 30 30 32 31 35 34 31 32 33 33 29 28 27 27 29 29 32 26 19
34 35 30 32 26 38 39 35 33 35 34 33 33 34 36 33 29 30 34 34 33 32 32 33 33 33 31 32 33 33 33 33 34 34 33 33 31 31 30 30 31 30 25
33 30 28 27 27 30 31 30 30 32 33 33 31 29 28 28 30 30 32 31 29 34 33 33 33 34 32 32 34 36 37 38 39 38 36 36 35 34 35 34 33 32 32
Wind_Direction
248 247 243 246 244 241 274 295 293 305 313 317 318 324 323 322 336 332 324 318 327 327 328 329 334 337 344 343 341 340 355 338 329 350 346 350 353 354 14 356 299 306 211
263 259 257 254 252 253 269 275 290 296 303 306 312 317 319 322 328 333 330 326 326 329 328 328 328 331 339 343 331 332 347 339 333 353 345 353 356 7 31 57 60 78 167
265 271 269 267 259 260 259 269 284 294 296 304 315 326 326 326 331 331 328 327 329 332 334 334 329 323 330 342 344 348 350 346 335 343 345 357 359 18 34 60 97 132 150
268 278 279 270 265 267 271 281 285 294 300 308 319 322 326 327 333 329 329 328 330 330 332 333 334 329 326 336 343 353 352 341 343 344 349 359 2 25 33 46 83 109 132
259 267 268 273 275 275 276 277 283 298 284 302 309 316 322 328 331 331 331 329 326 328 330 332 333 336 333 337 341 347 345 337 350 348 356 359 7 31 40 48 82 113 134
250 257 265 267 267 267 266 267 266 248 266 293 300 309 317 325 332 336 334 331 331 330 331 329 329 331 337 339 338 342 338 335 349 351 360 359 10 37 50 57 85 101 119
246 257 264 264 260 262 268 270 268 262 273 284 295 304 313 321 330 333 334 332 330 331 329 327 327 326 329 334 339 344 350 336 352 355 0 1 12 40 52 64 83 107 122
243 254 264 266 264 263 265 266 268 273 280 286 293 299 305 313 318 323 326 328 328 328 329 326 324 322 324 328 339 348 348 334 342 355 4 5 2 51 53 67 92 114 126
250 254 255 256 263 263 266 268 268 270 274 279 285 292 299 303 307 311 316 324 326 326 327 322 320 318 320 321 328 340 350 328 338 348 7 15 355 60 63 78 109 126 136
255 254 250 258 266 271 274 273 273 273 275 278 281 286 292 297 299 305 309 319 322 322 320 320 316 311 312 313 316 329 344 343 334 341 354 8 358 19 86 93 120 140 150
257 259 258 262 269 274 275 276 274 276 276 277 279 282 287 292 295 299 305 313 318 316 313 313 311 307 306 312 310 319 333 334 301 312 323 334 358 330 170 120 141 168 171
262 260 261 264 264 266 271 273 274 277 277 277 279 281 284 286 292 299 303 309 311 306 307 308 305 304 303 305 308 308 319 317 296 301 302 297 303 324 268 204 188 211 208
256 258 263 265 263 261 265 271 273 273 276 277 280 282 284 287 293 297 301 306 305 305 308 305 303 305 306 306 308 307 310 310 297 278 273 281 257 263 257 229 213 204 222
251 246 258 261 264 266 269 269 274 277 278 282 284 286 287 288 290 293 298 299 300 302 302 301 302 303 307 310 307 304 301 307 303 283 281 278 253 238 228 235 231 222 208
254 246 256 260 263 268 268 270 271 274 274 277 279 281 279 281 286 292 292 290 293 297 298 298 294 297 304 309 310 306 296 293 305 291 293 274 263 241 232 220 243 229 225
256 256 251 254 256 259 263 264 273 269 270 270 267 271 272 277 283 288 287 292 294 292 294 293 287 290 296 299 299 295 299 299 298 296 300 289 288 263 242 234 231 245 234
253 258 263 260 250 261 256 251 256 259 251 252 258 263 264 276 282 283 285 289 291 288 288 292 292 290 293 294 292 286 290 298 299 297 299 302 307 266 256 241 230 227 239
257 257 263 270 272 280 265 254 243 257 261 252 244 252 262 275 272 272 274 278 282 279 278 287 295 290 287 289 291 292 294 295 294 295 285 288 300 298 291 274 257 241 231
252 256 255 268 253 276 294 298 276 270 255 251 238 246 261 265 263 265 267 269 271 273 275 284 288 283 281 279 282 285 289 292 295 297 283 281 283 293 304 302 273 242 239
248 253 262 271 275 283 299 296 265 265 257 242 237 249 255 256 258 258 262 266 266 266 273 275 276 278 279 280 282 286 286 289 289 288 290 280 280 275 281 266 298 248 225
249 255 258 269 275 285 276 284 258 252 251 243 242 244 249 251 255 255 254 258 262 266 273 276 272 275 278 281 283 282 286 287 287 283 281 277 274 264 267 268 277 288 240
251 255 264 267 270 269 246 248 253 242 236 234 234 240 246 251 250 256 249 251 254 258 264 270 275 279 279 280 281 283 286 289 288 282 278 273 269 262 261 263 260 287 272
247 251 256 254 272 254 243 233 224 232 234 232 239 247 254 254 257 261 254 255 252 258 267 271 276 279 279 283 285 287 289 290 290 285 278 274 270 267 258 259 256 265 278
235 237 238 248 258 239 230 223 228 232 237 240 242 246 252 260 261 254 249 255 258 262 266 271 275 275 279 281 282 284 284 284 282 281 276 271 268 267 266 264 259 248 262
232 233 230 254 245 235 227 223 224 235 241 244 248 258 266 271 268 257 256 257 263 268 271 275 277 276 278 280 281 284 284 283 283 279 275 273 269 265 262 261 258 252 239
209 214 217 232 238 239 237 239 249 248 250 254 262 259 261 267 263 255 251 253 262 269 279 276 276 278 281 283 284 290 292 291 287 282 277 271 265 260 258 253 252 248 245